User: anonymous   Login
Location: Hopkins Observatory
(42.6965°N, 73.1843°W)
Time: 08:59:27
(UTC-04:00)
Language:

UOSAT-12 - Orbit

View from above orbital plane
View from above orbital plane
View from above satellite
View from above satellite

Ground track
Ground track

The orbit data is extracted from the following two-line orbital elements,

1 25693U 99021A   14302.95918556  .00000460  00000-0  78519-4 0  6490
2 25693 064.5569 207.3410 0049740 270.8274 166.3579 14.80111335837869
Epoch (UTC): 29 October 2014 23:01:13
Eccentricity: 0.0049740
inclination: 64.5569°
perigee height: 594 km
apogee height: 664 km
right ascension of ascending node: 207.3410°
argument of perigee: 270.8274°
revolutions per day: 14.80111335
mean anomaly at epoch: 166.3579°
orbit number at epoch: 83786

The dashed part of the orbit path shows where the satellite is in the earth's shadow,  

DLR